Flag for U.S.A. Weather past 2 weeks in Providence, Rhode Island, U.S.A.

Now
80 °F

Passing clouds.


Feels Like: 80 °F
Forecast: 60 / 81 °F
Wind: 7 mph from Northwest

Location: Green State Airport

Current Time: Jul 25, 2014 at 2:21:17 PM

Latest Report: Jul 25, 2014 at 1:51 PM


Visibility: 10 mi

Pressure: 29.96 "Hg

Humidity: 38%

Dew point: 52 °F

Location of ProvidenceLocation

Historic Weather in Providence — Graph

°F

Providence temperature yesterday

Maximum temperature yesterday: 78 °F (at 10:51 AM)
Minimum temperature yesterday: 68 °F (at 11:51 PM)
Average temperature yesterday: 73 °F

Past Weeks' High & Low Weather Summary

 TemperatureHumidityPressure
High87 °F (Jul 23, 12:51 PM)97% (Jul 14, 10:51 PM)30.27 "Hg (Jul 14, 10:51 PM)
Low60 °F (Jul 12, 5:51 AM)38% (Jul 25, 12:51 PM)29.76 "Hg (Jul 24, 3:51 AM)
Average73 °F72%30.03 "Hg
* Reported Jul 10 12:51 PM — Jul 25 12:51 PM, Providence, Weather by CustomWeather, © 2014

Note: Actual official high and low records may vary slightly from our data, if they occured in-between our weather recording intervals... More about our weather records

Advertising

Providence weather history for previous 24 hours

 ConditionsComfort  
Time TempWeatherWind HumidityBarometerVisibility
12:51 PM
Jul 25
79 °FPassing clouds.10 mph38%29.97 "Hg10 mi
11:51 AM77 °FPassing clouds.N/A44%29.98 "Hg10 mi
10:51 AM75 °FPassing clouds.7 mph47%29.99 "Hg10 mi
9:51 AM73 °FPassing clouds.9 mph44%29.98 "Hg10 mi
8:51 AM70 °FPassing clouds.8 mph55%29.98 "Hg10 mi
7:51 AM66 °FPassing clouds.10 mph61%29.97 "Hg10 mi
6:51 AM64 °FPassing clouds.9 mph65%29.96 "Hg10 mi
5:51 AM63 °FPassing clouds.8 mph70%29.95 "Hg10 mi
4:51 AM64 °FClear.7 mph65%29.94 "Hg10 mi
3:51 AM66 °FClear.9 mph68%29.93 "Hg10 mi
2:51 AM68 °FPassing clouds.7 mph78%29.91 "Hg10 mi
1:51 AM69 °FOvercast.5 mph76%29.91 "Hg10 mi
12:51 AM67 °FPassing clouds.No wind81%29.90 "Hg10 mi
11:51 PM
Jul 24
68 °FPassing clouds.6 mph78%29.90 "Hg10 mi
10:51 PM69 °FPartly cloudy.3 mph76%29.89 "Hg10 mi
9:51 PM69 °FPassing clouds.3 mph73%29.89 "Hg10 mi
8:51 PM71 °FPartly sunny.3 mph66%29.87 "Hg10 mi
7:51 PM72 °FPartly sunny.7 mph64%29.85 "Hg10 mi
6:51 PM74 °FPartly sunny.7 mph64%29.83 "Hg10 mi
5:51 PM76 °FCloudy.10 mph62%29.83 "Hg10 mi
4:51 PM75 °FPartly sunny.8 mph60%29.82 "Hg10 mi
3:51 PM77 °FCloudy.8 mph66%29.82 "Hg10 mi
2:51 PM77 °FBroken clouds.5 mph64%29.83 "Hg10 mi
Weather by CustomWeather, © 2014

See weather overviewHow to use our weather pages